Wind_Speed
31 30 29 27 25 22 21 20 18 16 14 13 13 13 13 14 14 14 12 10 8 8 7 6 7 7 6 5 5 6 6 6 7 8 9 8 7 5 5 4 5 8 8 8 8 8 9 9 9 9 8 7 6 5 7 10 13 19 23 27 31 34 36 39 41 37 37 42 43 40 42 44 43 42 42 43 43 42 40 38 38 39 39 36 31 29 28
30 29 28 27 25 22 20 20 18 17 14 13 12 12 12 14 14 14 12 10 9 8 8 7 6 6 6 5 4 5 6 5 6 7 8 8 8 6 5 4 3 6 8 9 9 9 10 11 10 9 9 9 7 6 5 7 12 17 20 24 28 30 33 37 39 39 38 38 38 39 41 42 42 43 44 45 43 42 41 40 39 39 38 36 32 30 28
30 28 27 27 25 22 20 19 18 17 15 13 12 12 12 13 13 14 13 10 8 8 8 7 6 6 6 6 5 5 5 4 4 6 7 7 7 7 6 4 2 4 6 9 10 9 10 12 12 12 12 11 10 8 8 8 12 15 15 20 25 26 29 34 36 36 36 36 37 40 40 42 44 45 44 44 42 41 42 41 41 40 37 36 34 32 29
29 27 26 26 25 22 20 18 18 17 15 13 12 12 12 12 13 14 13 10 9 8 9 8 7 6 7 7 6 5 6 5 4 4 5 6 6 6 7 5 3 3 5 7 9 10 11 13 15 14 14 13 11 10 10 10 13 15 16 20 24 24 27 32 35 33 31 33 37 39 40 41 44 44 42 41 41 42 41 40 41 41 39 35 33 32 30
28 26 25 25 24 23 20 18 18 17 16 14 12 12 12 11 12 13 13 11 9 8 9 9 8 7 7 7 7 6 6 5 3 3 4 5 6 6 6 6 5 4 5 6 7 9 11 13 15 16 16 14 12 12 11 11 13 15 17 22 24 25 27 30 34 33 28 28 31 34 37 39 39 41 41 40 40 40 39 39 40 41 39 34 32 33 31
27 27 26 24 24 24 21 18 17 17 16 14 13 12 12 11 11 12 12 12 10 8 9 10 9 8 8 8 8 7 6 6 4 3 3 4 5 5 5 6 5 5 5 6 7 7 9 11 13 16 16 14 13 12 12 12 13 13 16 23 27 27 28 30 33 33 29 27 27 29 33 37 37 37 38 39 38 38 39 39 38 38 36 31 30 31 32
28 28 27 24 23 24 22 19 17 16 16 14 13 12 12 11 11 11 12 12 11 9 10 11 11 10 10 9 9 8 7 7 6 4 3 3 4 5 6 6 5 5 5 5 6 6 7 9 12 15 15 14 13 12 11 11 10 11 13 22 30 28 27 29 30 30 29 28 26 27 30 35 36 35 36 37 38 38 39 39 37 37 35 32 29 28 30
28 28 27 26 24 24 23 20 17 16 16 14 13 12 11 11 11 11 12 12 11 10 10 12 13 11 11 10 9 8 7 7 6 5 3 3 3 4 5 6 6 6 6 5 5 6 7 7 11 14 14 14 13 11 10 9 7 7 10 18 29 29 25 26 28 28 28 28 28 28 29 32 34 33 34 35 37 38 38 38 37 37 37 35 32 31 30
27 28 28 27 25 24 23 21 17 16 16 14 13 12 11 11 10 11 12 11 10 10 11 13 14 13 12 11 10 9 8 8 7 6 4 3 2 3 4 5 6 6 7 6 5 6 6 6 9 13 14 14 13 12 11 9 6 6 6 12 25 30 27 27 28 28 28 28 29 30 31 32 32 31 31 33 35 36 37 37 37 37 37 35 35 36 35
27 27 28 28 26 24 23 21 18 17 16 14 13 12 11 11 10 11 11 10 10 11 11 14 16 15 13 12 11 10 9 9 8 7 5 4 3 2 2 4 5 6 7 7 6 5 6 5 6 11 13 13 13 12 11 10 8 8 7 8 18 29 30 27 29 29 28 28 30 31 31 31 31 29 30 31 33 35 36 36 36 36 35 35 35 37 36
27 27 28 29 28 25 24 21 18 17 16 15 14 13 12 11 10 10 11 10 10 11 12 15 17 17 15 14 12 11 10 9 9 8 6 5 4 3 2 2 3 5 7 7 7 5 5 5 5 9 13 14 14 13 11 10 9 9 9 6 13 26 31 28 27 30 29 29 31 31 31 31 31 31 30 30 32 34 35 35 36 35 34 34 35 35 34
27 28 28 29 29 27 24 22 19 17 16 15 14 13 12 11 10 10 11 11 11 11 12 15 17 17 16 15 13 12 11 10 10 10 8 7 5 3 2 2 2 4 6 8 8 5 3 4 4 7 12 13 14 13 11 10 10 9 9 8 10 20 29 29 27 29 31 32 33 32 33 34 33 31 30 30 30 31 32 33 35 36 35 34 34 33 33
28 28 29 29 29 28 25 23 20 18 17 15 14 13 13 12 11 10 11 11 11 11 13 15 17 18 18 16 14 12 12 11 9 10 10 9 7 5 3 3 2 3 5 7 9 6 0 2 1 4 10 12 12 11 9 8 8 8 9 10 11 15 24 28 28 27 29 33 36 36 35 35 35 33 31 30 29 30 30 31 32 34 34 34 34 33 33
30 30 30 30 30 28 26 24 20 18 17 16 14 14 13 13 11 11 11 11 11 11 13 15 17 19 19 18 15 13 13 11 9 10 11 10 9 7 5 4 3 2 3 6 9 7 2 2 1 3 8 11 11 10 8 7 6 6 7 10 12 14 18 24 28 28 27 28 35 38 35 33 36 36 34 32 31 30 30 30 30 32 33 33 33 33 33
33 33 32 32 31 29 27 24 21 18 17 16 15 14 14 13 12 11 11 11 11 11 12 15 17 20 21 20 16 14 13 12 9 10 11 10 9 8 7 5 4 2 2 4 7 8 5 2 2 2 5 8 9 9 9 7 5 5 6 9 12 13 15 19 23 26 26 25 28 33 34 33 35 37 37 36 34 32 31 30 29 30 31 32 32 32 32
35 34 33 32 31 30 28 25 22 18 17 17 15 14 14 13 12 12 12 11 11 10 12 14 17 20 22 20 18 16 14 12 11 10 10 10 9 9 8 7 5 3 2 2 3 6 7 4 2 2 3 4 6 7 9 9 7 5 5 7 10 11 12 15 17 20 23 23 22 24 27 29 33 36 37 36 36 36 35 33 31 30 30 30 31 31 31
35 34 33 32 31 30 28 26 23 19 17 17 16 15 15 14 13 12 12 12 11 11 11 13 16 20 22 21 19 17 15 13 12 11 10 9 8 8 8 8 7 5 3 2 1 3 5 6 4 1 2 3 4 6 8 9 8 7 6 6 8 9 10 12 14 15 18 20 19 21 22 22 25 31 34 35 35 35 36 35 34 33 31 30 30 31 31
36 35 34 33 32 30 28 26 23 20 18 17 16 16 15 14 13 12 13 12 12 11 11 13 15 19 21 21 20 18 16 14 13 11 10 9 8 8 8 8 8 7 5 4 2 1 2 4 5 4 2 3 5 6 7 8 9 9 8 7 8 8 9 10 11 12 14 15 16 18 20 19 18 21 24 27 30 32 34 36 36 35 34 32 31 30 30
38 37 35 34 32 30 28 26 23 21 19 18 17 16 16 15 14 13 13 13 12 11 11 13 15 18 20 21 21 19 17 15 14 13 11 10 9 8 8 9 9 8 7 5 4 3 1 2 3 4 3 2 4 6 7 8 9 9 9 9 9 9 9 9 10 10 10 12 14 15 16 16 16 17 17 19 23 27 31 33 33 34 34 34 34 33 32
38 38 36 34 33 31 27 25 23 22 20 19 18 17 16 15 14 13 13 13 12 12 12 13 15 18 20 21 22 21 18 16 15 14 13 12 11 11 10 9 9 9 8 7 6 5 4 3 3 3 3 3 4 5 6 8 9 9 9 9 9 10 9 9 10 9 9 11 13 13 12 12 14 15 16 18 20 23 26 27 27 28 30 30 31 33 34
38 38 36 34 34 31 27 24 23 22 21 20 19 18 17 16 15 14 13 13 13 12 12 13 15 17 20 21 23 22 20 17 16 16 15 14 13 12 11 10 10 10 9 8 8 7 7 6 5 5 4 4 4 5 6 8 9 9 10 10 10 11 11 10 10 10 10 11 11 10 9 11 12 14 15 17 18 20 22 24 25 26 28 29 30 31 32
38 39 37 36 35 31 26 25 24 23 21 20 20 19 18 17 15 14 14 14 13 13 12 13 15 17 19 21 23 23 22 19 17 17 16 15 14 13 11 10 10 9 9 9 9 9 9 9 8 7 6 6 6 6 6 8 8 9 10 10 10 11 11 11 11 11 10 10 9 8 9 10 10 11 12 14 15 16 18 19 21 23 26 30 32 33 33
40 41 39 38 35 31 27 26 25 23 22 21 21 20 19 17 16 15 14 14 14 13 13 14 16 17 19 21 23 24 23 20 18 18 17 16 15 14 12 11 10 9 9 9 9 10 10 10 10 9 8 8 8 8 8 8 8 8 9 9 9 10 10 10 10 11 10 9 9 9 9 8 9 9 10 11 12 14 15 16 18 20 22 25 29 32 34
37 40 41 40 35 30 28 27 25 24 22 21 21 20 19 18 17 16 15 15 14 14 14 14 15 17 18 21 24 25 24 22 19 18 18 17 17 15 13 11 10 9 9 9 9 10 11 11 12 11 10 10 10 10 10 10 9 9 8 8 8 9 9 9 9 9 9 9 9 8 8 8 8 8 9 10 11 13 14 15 16 18 19 21 24 26 29
34 37 41 40 35 30 28 27 25 24 23 22 21 21 20 19 17 16 16 15 15 14 14 14 15 16 18 21 24 26 25 23 20 19 19 18 18 17 14 12 11 10 10 10 10 10 11 12 12 12 12 12 12 11 12 12 11 11 11 10 9 9 9 10 10 9 9 9 9 9 8 8 9 9 10 10 11 13 14 15 16 18 19 20 21 23 25
33 34 36 35 31 28 28 27 25 24 23 22 22 21 20 19 18 17 16 16 15 15 15 14 16 18 20 21 23 26 27 24 22 20 19 18 18 17 15 14 12 11 11 11 11 11 11 12 13 13 13 14 13 13 13 13 13 13 13 12 12 11 11 11 11 11 11 11 10 10 10 10 11 11 11 12 13 14 15 17 18 19 19 20 21 22 23
33 32 32 32 31 29 28 27 25 24 23 22 21 21 20 19 18 17 16 16 15 15 15 15 16 18 20 22 24 26 27 26 23 21 20 19 18 17 16 15 14 12 12 12 12 12 12 13 13 13 14 14 15 14 14 14 14 14 14 14 13 13 13 14 14 15 15 14 14 14 14 14 13 13 14 14 16 17 18 19 20 21 21 22 22 23 24
33 31 31 33 33 31 28 26 25 24 23 22 21 21 20 19 18 17 17 16 16 15 15 15 16 18 20 23 24 26 27 26 23 21 20 19 18 17 16 15 14 13 13 13 13 13 13 13 13 13 14 15 15 15 15 15 16 16 16 15 15 15 16 16 17 18 18 18 17 18 17 17 16 16 16 17 18 19 20 21 22 23 24 24 24 25 25
30 29 30 31 32 30 27 26 25 24 22 21 21 20 20 19 18 17 17 16 16 15 15 17 18 19 20 22 24 26 26 25 23 22 20 19 18 17 16 16 15 14 14 13 14 14 14 14 14 14 14 15 15 16 16 16 17 18 17 16 16 17 18 18 20 20 20 20 20 20 20 19 19 19 20 20 21 22 23 23 24 25 26 26 27 27 27
28 27 28 30 31 29 26 25 25 23 22 21 20 19 19 18 18 17 17 17 16 16 16 18 19 19 19 21 23 25 25 24 23 22 21 19 18 17 17 16 16 15 14 14 14 15 15 15 15 15 15 15 15 16 16 17 18 18 17 16 17 18 18 20 22 22 22 22 22 23 24 23 23 23 24 24 24 25 25 26 27 28 28 29 29 29 30
27 25 26 29 30 29 26 25 24 22 21 20 19 18 18 18 18 17 17 17 16 16 17 18 19 19 20 21 22 23 24 23 23 22 20 19 18 17 17 17 16 15 15 15 15 15 15 15 15 15 15 15 15 16 16 18 19 18 17 16 16 17 19 21 22 23 22 23 24 25 26 26 26 27 26 27 27 28 28 28 29 29 30 30 31 31 32
26 25 24 27 29 28 26 24 23 21 20 19 18 18 18 18 18 17 17 17 16 16 17 18 19 20 20 20 21 21 22 22 22 22 20 20 19 18 17 17 16 15 15 15 15 15 15 15 15 15 15 16 16 17 17 18 19 18 17 15 16 18 20 22 22 22 21 22 23 24 25 26 26 27 28 28 30 30 30 30 31 31 31 32 32 33 34
25 24 24 26 28 27 25 23 21 19 18 18 17 17 17 17 17 17 17 17 17 17 17 19 20 20 19 19 20 20 20 21 21 20 20 19 19 18 17 17 16 15 15 15 15 15 15 15 15 16 16 16 16 17 18 19 19 18 18 17 19 21 23 22 21 21 21 21 22 23 24 25 26 28 30 31 32 32 32 32 32 32 33 33 34 34 35
23 23 24 25 26 25 23 21 19 18 17 17 17 17 17 17 17 17 17 17 17 17 18 19 20 20 19 19 19 19 20 20 20 20 20 19 18 18 17 16 16 15 15 15 16 15 15 15 15 16 16 16 16 17 18 18 18 17 18 19 22 24 24 23 22 22 22 22 24 25 26 28 29 31 32 32 33 33 33 33 33 33 34 34 35 36 36
21 22 22 23 23 22 20 19 18 17 17 17 16 16 17 17 17 17 17 17 18 18 19 20 21 20 20 19 19 19 19 20 19 19 19 18 17 17 17 16 16 16 16 15 16 15 15 15 15 16 16 16 16 17 17 16 16 15 17 20 22 22 22 22 22 22 23 24 26 28 29 31 32 32 33 33 33 33 33 34 35 35 36 37 37 38 38
21 21 21 20 20 19 18 17 17 17 16 16 16 16 16 16 17 17 17 18 18 19 19 20 20 20 20 19 19 19 19 19 19 18 18 17 17 17 17 17 17 16 16 16 16 15 15 15 15 15 16 16 16 16 15 15 14 14 16 18 18 19 19 20 21 23 24 27 28 30 31 32 32 32 32 33 33 34 35 36 37 38 39 39 40 41 41
20 19 18 18 18 17 17 16 16 16 16 16 16 16 16 16 17 17 18 19 19 19 19 20 20 20 19 19 18 18 18 18 18 18 18 18 17 17 17 17 17 16 15 16 16 16 15 15 15 15 16 17 17 16 14 13 13 13 14 16 17 18 20 21 23 25 27 28 30 31 31 31 32 33 33 34 35 36 37 38 39 40 41 41 42 43 43
17 16 15 15 16 16 15 15 15 16 16 15 15 16 16 17 17 17 18 19 19 19 19 20 19 19 19 19 18 18 18 18 18 18 17 17 17 17 17 17 16 16 16 16 16 16 15 15 15 16 18 19 18 16 14 13 12 13 15 17 18 20 21 23 25 26 27 28 29 30 31 32 33 34 35 36 37 38 38 39 40 41 42 43 44 44 45
14 13 12 12 13 14 14 14 14 15 15 14 15 15 16 17 17 18 19 20 20 19 19 19 19 19 19 18 18 18 18 18 18 17 17 17 16 16 17 16 16 16 16 16 16 16 15 15 16 17 19 20 18 16 14 14 15 17 18 19 20 22 23 24 25 26 27 29 30 31 32 33 34 34 35 36 37 38 40 41 42 43 44 45 46 46 47
12 13 12 11 11 12 13 14 14 14 14 14 15 16 16 17 17 18 19 20 20 20 19 19 19 18 18 17 17 17 17 17 17 17 16 16 16 16 16 16 16 16 16 16 16 15 15 15 16 18 20 20 18 16 15 16 18 20 20 21 22 23 24 25 26 27 28 29 30 31 31 32 33 35 36 37 39 40 41 42 43 44 45 46 47 47 48
13 14 12 10 10 11 13 13 13 13 14 14 15 16 16 16 17 19 19 20 21 20 19 19 18 18 17 17 17 17 17 17 17 17 16 16 16 16 16 16 15 15 15 15 15 15 15 16 17 19 20 18 16 14 15 18 20 21 21 22 23 24 25 26 27 27 28 28 29 30 32 33 35 37 38 40 41 42 42 43 44 44 45 46 46 47 48
13 14 13 12 12 13 13 13 13 14 14 14 15 16 16 16 17 19 20 20 21 20 19 18 18 17 16 16 17 17 17 16 16 16 16 15 15 16 15 15 15 15 15 15 15 15 16 16 17 18 18 16 14 15 17 19 20 21 22 24 24 25 26 26 27 27 27 28 30 32 34 36 38 39 40 41 42 42 42 43 43 44 45 45 46 46 47
13 14 14 14 14 14 13 13 14 14 14 14 15 15 16 16 17 19 20 20 20 20 19 18 17 16 16 16 16 16 16 16 16 15 15 15 15 15 15 14 14 14 14 14 14 15 15 15 16 16 15 15 15 17 18 19 21 22 23 24 25 25 25 25 26 27 29 31 33 35 37 39 40 40 41 41 41 42 42 42 43 43 44 45 45 46 47
12 13 14 14 14 13 13 14 14 14 14 14 14 15 16 17 17 19 20 20 20 20 18 17 16 16 15 15 15 15 15 15 15 15 14 15 15 15 14 14 13 13 13 13 13 14 13 13 13 14 15 16 17 18 19 20 21 23 24 24 24 24 25 26 27 29 32 34 36 38 39 40 40 40 40 40 40 41 42 42 43 43 44 44 45 45 46
12 12 13 13 13 13 13 13 12 13 14 14 15 16 17 16 16 18 20 21 20 20 18 16 16 16 15 15 15 15 14 14 14 14 14 15 15 14 14 13 13 12 12 12 12 11 10 11 12 14 16 16 17 18 19 21 22 23 23 23 24 24 25 27 29 31 34 36 37 38 39 38 38 38 38 39 39 40 41 41 42 42 43 43 43 43 44
12 12 12 12 12 12 12 12 12 13 14 15 15 16 17 16 16 18 21 21 21 20 18 17 16 16 15 15 14 14 14 14 14 14 15 15 14 14 13 13 13 13 12 12 10 8 9 11 13 14 15 16 17 19 20 21 22 22 23 23 24 25 27 29 31 33 36 37 38 37 37 36 36 36 37 38 39 39 40 40 40 41 41 41 41 41 41
11 11 11 12 12 12 12 12 13 14 15 15 14 15 16 17 18 19 21 21 21 20 19 18 17 16 15 14 14 14 14 15 15 15 15 15 14 14 14 14 14 13 12 11 9 9 10 13 14 14 15 16 18 19 20 21 21 22 22 23 25 26 28 31 33 35 36 37 36 35 34 34 35 36 37 38 38 39 39 39 39 39 39 38 38 39 39
11 11 11 12 12 12 12 13 13 14 15 15 14 15 16 18 20 21 22 22 21 20 19 18 17 15 14 14 14 14 14 15 15 15 15 15 15 15 15 14 14 13 12 11 10 11 12 13 13 14 16 17 18 19 20 21 21 22 23 24 26 28 30 32 34 36 36 35 34 33 33 34 35 36 37 37 38 38 38 38 37 37 36 36 36 36 36
11 11 12 12 12 12 12 13 13 14 15 15 15 16 17 19 21 22 23 23 22 20 18 17 16 15 14 14 14 14 14 14 15 15 15 15 14 14 14 13 13 12 11 11 11 13 14 14 14 16 16 17 18 19 21 21 22 22 23 25 27 29 31 33 35 36 35 33 32 32 33 34 35 35 36 36 36 36 36 35 34 34 33 32 31 30 30
11 11 12 12 11 11 12 13 12 13 14 15 17 18 19 21 22 23 24 24 22 20 18 16 16 15 14 13 13 13 13 14 14 14 14 14 13 13 13 12 12 11 11 11 13 14 14 15 15 16 17 17 19 20 21 22 22 23 24 25 28 30 32 34 35 34 33 31 31 31 32 33 34 35 35 35 35 35 34 33 32 31 29 27 25 24 24
12 12 12 11 11 11 12 13 13 13 14 16 18 19 21 22 23 24 25 24 22 20 18 17 16 15 14 12 12 12 13 13 13 13 13 13 12 12 12 12 12 11 11 12 13 14 15 15 16 16 17 18 20 21 21 22 22 23 24 26 29 31 33 34 34 33 31 30 30 31 32 33 34 34 34 35 35 34 32 31 29 27 25 23 22 21 21
12 11 11 11 11 11 12 13 13 14 16 17 19 20 22 23 24 24 24 23 21 20 19 18 17 15 14 13 12 12 13 12 12 12 12 12 12 12 12 12 12 12 12 13 14 15 15 15 16 16 18 19 20 21 21 22 22 23 25 27 29 31 33 34 33 31 29 29 29 31 32 33 34 34 34 34 33 32 30 28 27 24 23 21 21 20 21
Wind_Direction
336 336 337 338 339 341 340 340 340 338 332 323 322 332 342 346 344 341 339 334 319 302 292 288 286 289 297 307 328 332 334 353 3 6 10 10 6 351 340 325 253 236 233 232 234 238 243 242 238 239 242 252 269 242 203 205 207 208 213 215 214 215 213 211 213 213 215 219 217 215 217 217 217 218 220 222 222 223 224 227 233 234 230 230 230 229 230
333 334 334 334 336 339 339 337 337 337 332 321 316 323 335 343 342 340 338 331 317 297 286 285 285 288 292 297 314 319 320 339 356 3 6 5 7 0 344 336 280 243 237 236 236 238 245 246 245 245 240 238 255 268 248 215 205 209 215 213 211 212 211 210 212 215 217 219 218 217 217 216 216 217 218 219 219 219 220 223 227 231 230 228 228 231 231
330 331 332 331 333 337 338 335 334 335 332 321 312 313 325 338 340 338 336 327 311 290 277 277 280 283 285 287 297 306 304 317 345 359 1 359 2 3 353 340 303 264 251 249 247 245 248 248 246 244 238 231 230 238 248 234 216 218 220 215 211 208 209 209 209 211 216 218 218 218 216 216 216 216 217 218 218 219 219 222 227 231 233 230 226 228 232
327 328 331 329 330 334 336 334 331 332 331 321 311 307 314 329 336 336 334 324 307 287 270 267 271 275 277 278 282 293 292 296 326 346 354 356 356 357 354 347 324 279 262 260 258 254 253 252 248 242 236 231 226 227 236 235 228 227 220 213 211 208 207 209 208 208 211 214 217 218 217 218 219 218 218 218 219 220 220 221 226 230 232 230 226 226 231
328 328 329 328 327 330 333 332 329 329 329 322 311 305 306 317 329 334 331 319 304 286 267 261 262 264 266 266 266 278 285 279 287 316 331 347 352 353 351 349 342 303 267 261 261 258 256 254 246 238 233 231 229 229 233 233 236 237 223 211 211 211 209 208 209 211 211 209 213 217 218 220 221 220 219 219 219 220 221 221 224 227 229 231 233 230 230
331 329 328 327 325 326 329 330 328 326 325 321 311 303 301 307 319 328 329 318 303 285 264 256 255 257 258 260 258 264 276 271 259 278 308 324 340 349 351 348 348 337 293 264 260 262 258 250 238 229 225 226 229 227 222 223 235 246 229 210 208 210 208 206 208 212 214 209 206 210 215 218 220 220 219 219 219 219 221 222 223 225 224 226 232 232 231
331 330 328 326 324 324 325 328 326 323 322 319 311 302 297 300 309 321 325 317 301 281 260 249 248 251 254 256 256 255 262 264 252 249 278 301 321 341 353 356 353 352 336 287 262 263 261 243 226 222 219 220 227 227 219 215 225 244 235 209 202 204 203 199 202 207 210 210 206 206 212 215 217 219 219 218 218 219 221 222 223 225 224 222 226 228 230
330 330 329 326 324 322 322 324 324 321 318 316 310 301 295 295 302 313 320 316 300 278 255 243 242 246 250 253 255 252 250 252 247 239 248 278 309 328 344 357 359 356 351 327 274 256 259 241 218 215 217 216 220 225 226 221 212 228 238 211 199 198 194 191 197 204 204 205 208 209 212 214 215 217 219 218 218 219 221 223 225 226 227 227 228 229 230
327 329 329 327 324 321 319 320 322 319 315 313 309 300 292 291 294 304 313 313 299 275 251 238 237 242 249 254 253 249 244 241 238 235 236 253 287 314 332 347 356 356 353 343 303 257 249 241 217 210 213 217 219 222 226 228 207 194 224 216 199 195 194 189 192 200 201 201 205 209 211 214 214 216 218 219 219 220 221 223 225 227 228 228 229 231 231
322 326 327 326 323 320 316 316 318 317 313 309 306 298 290 286 287 295 305 307 295 276 252 236 235 238 244 250 250 246 241 234 230 232 233 240 256 276 318 339 354 359 354 348 328 276 239 234 222 211 212 216 219 222 226 227 211 181 185 215 201 193 194 193 190 194 199 200 203 206 209 211 213 214 216 218 219 221 222 224 226 228 229 229 229 232 233
316 321 324 324 322 318 314 312 313 314 310 306 302 297 288 282 281 287 297 302 293 278 255 237 235 236 237 243 245 242 240 232 226 228 229 229 239 247 276 321 357 8 360 352 341 304 236 220 224 216 213 214 215 223 227 221 210 187 175 198 202 192 194 197 193 192 196 199 202 205 206 207 208 211 215 217 219 222 224 225 228 230 230 231 232 233 234
312 317 320 322 320 316 311 309 308 309 308 303 299 295 287 279 277 279 289 298 294 278 258 241 236 234 233 237 240 238 237 233 226 228 230 226 228 236 253 290 344 11 7 359 353 334 239 213 227 218 212 210 211 220 227 219 211 202 187 188 196 193 195 200 200 196 195 196 199 203 207 208 208 209 213 216 219 223 226 228 230 233 234 235 235 235 235
307 312 315 317 317 313 309 305 304 304 304 300 295 291 285 277 274 274 281 293 292 278 261 247 238 234 231 234 238 236 234 233 228 230 234 231 226 229 238 257 297 355 7 5 3 358 248 190 222 206 200 201 202 206 216 216 210 211 200 190 188 190 196 203 207 207 203 197 195 200 207 210 209 209 212 216 220 223 227 229 232 235 237 238 239 239 238
302 307 310 312 312 310 306 302 300 299 300 298 291 286 282 275 272 271 275 285 289 276 261 249 239 233 231 232 235 235 232 230 228 231 235 234 229 229 233 238 256 308 356 7 10 13 36 135 120 174 191 197 198 193 194 199 200 204 202 192 187 186 193 202 208 213 216 208 198 198 204 207 207 209 211 214 219 223 227 230 234 236 238 240 241 242 242
297 301 305 308 308 306 302 298 295 293 294 294 288 282 278 273 269 268 270 278 284 275 260 249 239 233 233 232 231 232 231 227 226 230 235 236 232 231 232 233 239 265 325 358 13 20 34 98 138 160 186 200 204 196 188 188 192 195 192 190 188 186 190 199 205 211 220 223 211 203 202 203 206 209 212 213 215 220 225 228 231 236 239 241 243 244 244
293 296 299 302 303 302 298 294 290 289 289 289 285 278 275 271 267 264 266 272 279 274 261 250 239 234 234 232 228 229 229 224 223 229 235 238 238 235 234 234 234 240 274 327 9 24 32 52 125 177 186 190 196 196 193 193 195 194 185 183 187 188 190 197 203 208 217 226 227 220 213 207 206 210 214 215 214 216 221 224 227 231 236 240 243 244 244
289 292 295 297 298 297 294 289 286 284 285 285 281 275 271 269 264 261 262 267 274 272 262 252 241 234 233 230 226 226 227 224 223 227 234 240 243 240 238 239 236 233 239 254 307 20 33 43 59 119 189 178 169 176 183 187 192 195 187 177 183 189 193 197 202 210 217 225 233 235 232 222 213 211 214 217 217 217 218 220 223 225 227 233 238 241 243
285 287 289 292 293 292 288 284 281 280 280 280 277 271 268 266 262 258 258 263 269 269 263 253 242 234 232 229 225 222 224 223 222 224 229 235 240 239 239 240 238 234 232 231 238 271 49 54 57 67 118 171 170 167 169 175 183 190 189 183 181 186 193 199 203 210 218 225 233 237 237 235 228 222 219 218 219 220 220 220 222 223 223 226 231 235 240
280 282 284 287 288 287 282 277 275 275 276 276 273 268 264 262 260 255 254 259 265 266 260 253 244 236 232 228 223 220 221 221 219 220 223 226 229 228 229 233 235 235 231 226 225 221 173 110 79 76 82 127 163 165 165 169 174 180 184 186 186 185 188 196 204 210 215 220 228 234 235 235 234 233 231 228 226 226 227 227 226 224 222 224 226 228 231
276 277 279 282 284 281 275 271 269 269 270 272 269 264 260 258 256 253 251 254 260 263 259 253 246 238 232 227 221 218 220 221 218 217 219 221 222 220 219 224 229 231 230 224 221 218 201 185 172 136 111 115 144 152 155 162 168 173 177 180 184 189 190 193 200 207 210 214 223 228 229 228 228 228 230 233 236 236 235 236 237 234 231 231 231 230 228
273 273 274 278 279 275 268 263 262 263 265 266 266 262 257 254 253 250 248 250 255 260 258 252 247 240 232 226 220 217 219 221 219 216 217 220 223 220 216 216 220 225 226 221 216 214 206 202 203 190 170 159 154 149 149 152 158 165 170 172 176 183 188 192 197 204 209 214 220 223 218 216 220 223 226 231 238 241 241 242 244 245 244 243 243 242 239
272 270 270 272 272 267 260 255 255 257 259 261 262 259 255 253 250 248 246 247 251 255 254 250 246 239 232 225 218 214 216 219 219 216 216 219 223 223 218 216 216 218 221 219 214 211 206 204 205 203 195 188 181 169 160 157 157 158 162 165 168 171 176 181 187 196 204 209 213 214 213 214 219 224 229 233 238 241 243 243 244 245 246 247 248 248 248
275 271 268 267 265 260 253 249 249 251 254 256 257 256 253 251 248 246 244 244 247 250 250 247 243 238 231 224 217 212 213 216 217 216 214 216 221 223 221 219 218 216 218 220 217 213 210 208 207 205 203 201 198 192 184 176 170 167 165 166 167 168 171 175 179 185 192 196 200 204 209 215 220 225 230 237 242 246 247 248 248 247 246 247 248 249 250
276 274 270 264 258 253 248 244 244 247 250 252 253 252 251 249 247 245 243 242 245 248 248 246 241 235 230 223 216 211 211 214 215 215 214 215 218 221 221 221 223 222 220 221 220 217 215 214 212 209 207 206 206 204 203 201 196 191 187 184 182 180 181 182 184 186 191 195 199 204 209 215 222 229 233 237 242 247 250 251 252 251 249 248 248 248 249
275 278 273 261 251 245 242 240 240 243 246 249 249 249 249 247 245 244 242 241 243 245 246 243 236 229 225 221 215 211 210 212 215 216 215 215 217 220 222 224 227 229 228 227 226 223 220 219 219 217 215 213 212 211 211 213 214 213 212 211 209 206 203 202 203 203 204 206 207 209 216 225 233 240 246 249 250 252 253 255 255 254 253 252 251 250 249
278 283 277 262 250 245 241 237 238 240 243 246 247 247 247 245 244 243 241 240 241 243 243 237 231 226 223 218 214 211 210 212 214 216 217 216 217 219 222 224 226 229 231 232 231 228 226 224 224 223 222 222 221 220 220 221 222 223 225 226 226 226 224 224 226 226 224 223 224 228 234 241 246 250 255 259 261 262 262 262 261 261 259 257 256 254 252
279 286 281 267 255 247 241 237 236 238 240 243 244 245 246 245 242 242 240 239 240 241 238 230 225 223 219 214 211 211 210 211 213 216 218 218 218 219 223 225 227 228 229 230 232 231 230 230 230 229 228 228 229 228 227 227 229 230 231 231 233 235 236 236 238 239 238 238 239 243 248 251 255 259 261 263 266 267 267 267 266 266 266 264 262 260 257
279 286 284 271 255 244 238 236 235 235 237 240 241 243 245 244 242 240 239 238 238 238 233 224 218 217 214 211 210 210 210 211 213 215 217 219 220 222 225 228 230 231 229 229 230 231 231 232 233 233 232 231 233 234 233 232 233 234 234 235 236 239 240 240 242 243 243 243 242 244 248 251 255 259 263 266 269 269 269 269 269 268 268 269 268 266 263
279 283 282 269 252 241 237 234 232 233 235 237 239 241 242 242 241 239 237 236 235 233 227 219 214 213 211 208 209 210 210 210 212 215 218 220 221 224 227 230 232 232 231 229 229 230 232 232 232 233 233 232 233 235 236 236 237 238 238 238 239 242 244 245 246 247 247 246 245 244 246 249 253 258 263 266 268 270 270 269 270 269 269 269 269 269 268
276 280 278 267 253 242 235 230 228 230 233 235 237 238 239 241 240 237 235 235 232 227 221 216 214 211 208 206 207 209 209 210 212 215 218 221 223 225 228 230 232 232 231 230 230 231 233 234 235 235 234 234 234 235 236 238 240 241 241 241 243 246 249 251 252 252 252 252 251 251 251 253 257 261 264 266 267 270 271 270 269 269 269 269 270 269 269
273 274 273 264 252 240 230 226 226 228 230 232 234 235 236 239 238 235 233 232 228 221 216 212 210 208 207 205 206 208 208 210 212 216 219 222 224 226 228 230 231 231 231 231 232 234 235 236 237 236 235 234 234 235 236 238 241 244 245 246 248 251 254 255 256 258 258 258 258 258 259 261 264 265 265 266 268 270 271 271 269 269 270 270 270 270 270
272 270 266 258 246 236 227 224 225 226 228 231 231 231 234 236 235 232 231 228 223 216 210 206 205 206 206 207 207 207 208 211 214 217 221 224 226 227 228 229 230 232 233 234 235 237 237 237 237 236 236 235 234 236 238 240 244 248 250 252 253 255 256 258 261 263 263 261 261 261 262 263 265 267 268 269 271 272 271 270 269 269 269 270 271 271 270
268 264 259 250 240 231 224 222 223 225 226 227 228 230 232 232 231 230 229 225 218 212 206 203 203 204 205 206 208 208 209 212 216 218 221 224 226 227 228 229 231 233 236 237 238 238 239 238 237 235 234 233 234 237 240 243 247 252 255 256 256 258 260 263 264 264 264 263 263 264 265 266 268 270 272 273 273 273 272 270 269 269 269 270 270 270 270
267 259 252 243 234 226 221 220 221 223 223 224 226 227 229 228 226 227 227 222 214 208 203 201 201 202 204 207 208 208 210 214 217 219 221 222 225 227 229 231 234 236 238 238 239 240 239 237 234 233 232 232 233 237 242 247 253 259 259 257 258 260 263 265 265 265 265 266 266 266 268 270 272 274 276 276 275 274 273 272 271 271 270 270 270 269 269
266 257 246 236 227 222 219 219 220 220 221 222 224 225 225 223 222 223 223 218 211 205 202 200 200 202 204 208 209 209 211 215 217 219 221 222 223 227 231 234 236 237 239 239 239 239 236 234 232 231 231 232 234 238 246 256 264 264 260 258 261 264 266 266 267 267 268 268 269 270 272 275 277 278 278 277 277 276 275 275 274 273 272 271 271 270 269
263 251 238 228 222 218 217 217 218 218 218 219 222 222 221 219 220 220 219 214 208 203 202 201 201 203 205 208 211 211 212 216 218 220 222 223 224 227 231 234 236 237 238 237 238 237 235 233 232 231 231 234 239 245 256 268 273 269 264 263 265 266 267 267 268 269 270 271 273 275 277 279 280 280 280 279 279 278 278 277 276 275 274 273 272 271 270
252 239 229 222 219 217 217 217 216 215 216 218 220 219 217 217 217 217 214 209 204 202 202 202 203 204 206 209 212 212 213 215 218 220 222 224 226 228 231 233 235 236 236 236 236 236 235 234 232 233 236 241 246 255 268 278 278 271 266 266 266 266 267 269 270 272 274 275 277 279 280 281 281 281 281 281 281 280 279 278 277 276 275 275 274 273 272
235 226 220 218 218 218 217 216 215 214 216 217 218 217 216 215 215 213 209 205 202 200 201 203 204 206 208 211 213 213 214 216 218 220 223 225 226 229 231 233 234 234 235 236 235 234 234 233 233 236 242 247 253 264 276 278 272 266 265 267 269 271 273 275 276 277 279 280 280 281 281 282 282 282 281 281 281 280 279 279 278 277 276 275 274 273 272
221 212 210 216 222 222 218 216 215 215 216 217 216 216 215 214 213 209 205 202 200 200 201 202 204 206 209 212 213 214 215 216 218 220 223 225 226 229 231 233 233 233 233 234 235 235 235 234 236 242 249 255 261 271 277 272 266 266 269 273 275 277 278 279 280 281 281 281 281 282 282 282 282 283 282 282 282 282 281 280 279 278 277 276 274 273 271
208 200 200 211 223 223 219 216 215 215 216 216 215 215 214 213 210 207 202 199 199 199 200 202 205 207 208 210 212 213 215 216 218 221 224 226 227 230 233 234 233 233 234 234 236 239 240 240 242 248 254 261 269 275 274 269 267 270 274 278 281 282 282 283 283 282 282 282 282 283 284 284 285 285 286 285 285 284 283 282 281 279 277 276 274 273 271
203 196 194 203 221 227 222 217 215 215 216 215 213 213 213 211 208 205 202 198 198 199 200 202 204 207 208 208 210 211 212 215 218 222 225 227 228 231 233 233 232 233 236 237 239 242 244 245 247 252 259 268 275 276 269 266 269 274 279 283 285 286 285 285 285 284 284 285 286 287 288 289 290 290 290 289 288 287 286 284 282 281 279 277 276 274 272
201 195 192 198 214 222 221 217 215 215 215 214 211 210 209 208 206 203 201 198 197 198 200 201 204 206 208 208 209 210 212 215 219 223 226 229 231 232 233 233 232 234 237 240 242 245 247 249 253 260 267 273 273 266 264 268 274 281 285 286 286 286 287 287 287 288 290 291 293 294 295 296 296 295 294 292 291 289 288 286 284 283 281 279 278 276 274
200 196 195 199 207 214 217 217 216 215 214 212 209 207 206 205 203 201 199 197 197 198 199 202 204 206 208 209 210 211 212 215 219 223 224 227 229 231 231 230 231 234 238 241 244 247 250 255 261 268 271 270 265 265 270 277 282 285 286 286 287 288 290 291 293 295 297 298 299 300 300 299 298 297 296 294 293 292 290 289 287 285 284 282 280 278 276
200 198 199 202 206 212 217 217 214 213 211 208 206 204 203 201 200 199 197 195 196 197 198 201 204 206 208 210 210 211 213 216 219 221 222 223 225 226 227 228 231 233 236 241 246 251 257 264 269 269 267 266 269 274 279 283 284 285 286 288 291 293 295 297 299 300 302 303 303 303 302 302 300 299 297 296 294 293 291 290 288 286 285 283 281 279 278
199 200 204 207 209 213 218 216 212 210 208 204 203 204 202 197 196 197 195 194 194 195 196 199 203 205 206 208 210 211 213 215 217 218 220 221 222 224 225 226 229 232 238 244 249 257 266 268 265 263 266 271 278 282 283 284 285 287 290 294 297 299 300 301 302 304 305 305 305 304 303 301 300 298 297 295 294 293 291 290 288 287 285 283 282 280 278
200 204 209 212 212 214 216 213 209 208 207 205 204 205 201 195 192 193 193 193 193 194 196 200 203 204 205 208 209 211 213 214 214 216 218 220 222 223 224 225 230 236 242 246 253 264 272 268 264 265 272 279 282 283 283 285 288 292 296 299 301 302 303 304 306 307 307 307 306 304 303 301 300 299 298 297 296 295 294 293 291 289 287 285 283 281 279
204 206 209 212 214 216 214 211 208 207 208 207 206 204 201 196 191 189 189 191 192 195 199 202 203 204 206 207 207 209 213 214 214 217 219 221 222 224 226 231 237 243 246 250 258 267 267 265 268 275 281 282 282 283 285 289 293 298 301 302 304 305 306 308 309 309 309 308 306 305 303 303 302 302 302 301 301 300 298 297 294 292 290 287 284 282 280
206 207 208 210 212 213 213 211 209 208 206 206 205 202 199 195 192 189 188 189 191 195 199 202 202 204 206 207 206 209 214 216 217 220 223 225 226 228 232 238 244 247 249 252 260 265 265 268 275 282 283 284 286 290 293 296 300 303 304 305 306 307 309 310 311 311 310 308 307 306 306 306 307 307 307 306 305 303 301 299 296 293 290 287 284 282 280
206 208 209 209 210 209 208 209 209 208 207 205 203 199 196 194 191 189 189 190 192 195 199 202 203 205 208 210 212 215 218 220 222 225 229 230 232 235 239 244 247 249 250 252 257 263 268 275 282 285 286 290 294 297 300 302 304 304 305 306 308 309 310 312 312 312 311 310 309 309 310 311 310 310 309 308 307 306 304 301 299 296 292 289 286 284 283
207 208 208 208 209 210 208 206 206 207 207 204 200 197 195 193 190 189 190 192 195 197 200 204 207 208 210 213 216 218 220 221 224 228 233 235 237 240 244 248 249 248 247 248 255 264 272 278 282 285 290 295 299 301 303 304 304 304 306 307 309 311 313 314 314 314 313 312 312 313 313 313 312 312 311 311 311 309 308 306 303 300 295 292 289 288 287
208 208 206 206 208 210 208 204 204 206 206 202 199 197 194 192 189 189 190 193 196 198 202 205 208 211 214 218 221 222 223 224 227 231 236 239 242 246 248 248 247 246 246 249 258 266 272 277 281 287 293 298 301 303 304 304 304 305 307 309 311 314 316 316 316 316 315 314 314 315 314 314 314 314 315 315 315 314 312 310 308 304 299 295 292 291 290
207 207 206 205 207 208 206 204 204 204 202 199 198 197 195 192 190 190 191 194 197 200 204 207 210 214 217 221 226 228 229 229 232 238 242 244 247 250 251 249 247 247 251 257 263 269 273 278 284 291 296 299 302 304 305 305 305 306 308 311 314 317 318 319 319 318 316 315 315 316 317 318 318 318 318 319 319 317 315 313 312 307 302 297 294 292 291
Height
5832 5829 5827 5824 5822 5820 5818 5816 5814 5813 5811 5810 5808 5808 5806 5804 5803 5802 5801 5800 5799 5798 5798 5798 5798 5798 5797 5796 5796 5796 5795 5794 5794 5794 5792 5792 5791 5790 5790 5790 5790 5790 5790 5790 5790 5791 5791 5792 5792 5792 5793 5793 5794 5794 5796 5797 5799 5802 5804 5805 5808 5811 5814 5818 5820 5824 5824 5826 5830 5834 5837 5840 5845 5848 5852 5854 5858 5862 5866 5870 5871 5870 5873 5876 5880 5882 5883
5829 5827 5824 5822 5820 5818 5816 5814 5812 5811 5810 5808 5807 5806 5804 5803 5802 5800 5800 5798 5798 5797 5797 5797 5797 5796 5796 5796 5795 5795 5794 5794 5794 5792 5792 5791 5790 5790 5789 5789 5788 5788 5789 5789 5790 5790 5790 5790 5791 5792 5792 5792 5793 5794 5795 5796 5798 5800 5801 5803 5806 5808 5812 5815 5818 5822 5823 5825 5828 5830 5833 5838 5842 5845 5848 5850 5855 5859 5862 5866 5866 5866 5870 5874 5877 5879 5880
5826 5824 5822 5820 5818 5816 5814 5812 5810 5809 5808 5806 5806 5804 5803 5802 5800 5799 5798 5797 5796 5796 5796 5796 5796 5795 5795 5794 5794 5794 5794 5794 5793 5792 5792 5790 5790 5790 5788 5788 5788 5788 5788 5788 5788 5789 5789 5790 5790 5790 5791 5791 5792 5794 5795 5796 5797 5798 5800 5802 5804 5807 5810 5812 5816 5819 5822 5823 5824 5827 5830 5834 5838 5840 5844 5848 5853 5856 5859 5862 5864 5865 5868 5871 5874 5876 5878
5824 5822 5820 5818 5816 5814 5812 5810 5808 5807 5806 5805 5804 5802 5802 5800 5799 5798 5796 5796 5795 5794 5794 5794 5794 5794 5794 5794 5794 5793 5793 5793 5792 5792 5791 5790 5790 5789 5788 5788 5787 5787 5787 5787 5787 5788 5788 5788 5788 5789 5789 5790 5791 5792 5794 5795 5796 5797 5798 5800 5803 5806 5808 5810 5814 5816 5818 5820 5822 5826 5830 5832 5836 5839 5843 5847 5850 5853 5857 5860 5862 5864 5866 5868 5872 5874 5876
5822 5820 5818 5816 5814 5812 5810 5808 5806 5805 5804 5803 5802 5801 5800 5799 5798 5796 5795 5794 5793 5792 5792 5792 5792 5792 5792 5792 5792 5792 5792 5792 5792 5791 5790 5790 5789 5788 5788 5787 5786 5786 5786 5786 5786 5786 5786 5786 5786 5787 5788 5788 5790 5791 5792 5794 5795 5796 5798 5799 5802 5804 5806 5810 5812 5814 5816 5818 5822 5826 5829 5832 5834 5838 5842 5844 5848 5851 5854 5857 5859 5860 5864 5866 5869 5872 5873
5820 5818 5816 5814 5812 5810 5808 5806 5804 5803 5802 5800 5800 5799 5798 5797 5796 5795 5794 5792 5792 5791 5791 5790 5790 5791 5791 5791 5792 5792 5792 5792 5791 5790 5790 5789 5788 5788 5787 5786 5786 5786 5784 5784 5784 5784 5784 5784 5784 5785 5786 5788 5788 5789 5790 5792 5794 5794 5796 5798 5800 5802 5805 5808 5810 5813 5815 5818 5821 5824 5826 5830 5832 5836 5840 5842 5846 5848 5850 5853 5856 5858 5861 5864 5865 5868 5870
5818 5815 5813 5811 5809 5807 5806 5804 5802 5801 5800 5798 5798 5796 5796 5795 5794 5793 5792 5791 5790 5790 5789 5789 5789 5790 5790 5790 5790 5790 5790 5790 5790 5790 5789 5788 5788 5787 5786 5786 5786 5785 5784 5784 5783 5783 5782 5782 5782 5784 5785 5786 5787 5788 5788 5790 5792 5794 5795 5796 5798 5801 5803 5805 5808 5811 5814 5817 5820 5822 5824 5828 5830 5834 5836 5840 5842 5845 5847 5850 5852 5854 5858 5860 5862 5864 5866
5815 5812 5810 5808 5806 5805 5803 5802 5800 5799 5798 5796 5796 5794 5794 5793 5792 5791 5790 5790 5788 5788 5788 5788 5788 5788 5788 5788 5788 5789 5789 5790 5789 5788 5788 5788 5787 5786 5786 5786 5784 5784 5784 5782 5782 5782 5781 5781 5781 5782 5784 5785 5786 5786 5787 5789 5791 5792 5794 5795 5797 5799 5801 5803 5806 5810 5812 5816 5819 5821 5823 5826 5828 5831 5834 5837 5840 5842 5844 5847 5849 5851 5854 5857 5860 5862 5864
5812 5810 5808 5806 5804 5802 5800 5799 5798 5797 5796 5794 5793 5792 5792 5790 5790 5789 5788 5788 5786 5786 5786 5786 5786 5786 5786 5786 5787 5788 5788 5788 5788 5788 5787 5787 5786 5786 5786 5785 5784 5784 5783 5782 5781 5780 5780 5780 5780 5781 5782 5784 5785 5786 5786 5788 5790 5791 5792 5794 5795 5797 5800 5802 5805 5808 5810 5814 5816 5819 5822 5824 5827 5830 5832 5834 5837 5840 5842 5844 5846 5848 5851 5854 5857 5858 5860
5809 5808 5806 5804 5802 5800 5798 5796 5796 5794 5793 5792 5790 5790 5789 5788 5788 5787 5786 5786 5785 5784 5784 5784 5784 5784 5784 5784 5785 5786 5786 5786 5786 5786 5786 5786 5786 5785 5785 5784 5784 5783 5782 5781 5780 5780 5779 5780 5780 5780 5782 5782 5784 5785 5786 5787 5788 5790 5791 5792 5794 5796 5798 5801 5802 5806 5809 5812 5814 5818 5821 5823 5825 5827 5830 5832 5834 5837 5839 5841 5843 5845 5848 5851 5853 5855 5858
5806 5804 5802 5800 5799 5798 5796 5794 5792 5792 5790 5790 5788 5787 5786 5786 5785 5784 5784 5784 5783 5782 5782 5782 5782 5782 5782 5782 5784 5784 5784 5785 5785 5785 5785 5785 5784 5784 5784 5784 5784 5782 5782 5780 5780 5778 5778 5779 5779 5780 5780 5782 5782 5784 5784 5786 5787 5788 5790 5791 5792 5794 5798 5800 5801 5804 5806 5810 5813 5816 5818 5820 5822 5824 5827 5830 5832 5834 5836 5838 5840 5843 5846 5848 5850 5853 5856
5802 5801 5800 5798 5796 5794 5793 5792 5790 5788 5788 5787 5786 5784 5784 5783 5782 5782 5782 5781 5780 5780 5779 5779 5779 5780 5780 5781 5782 5782 5783 5783 5784 5784 5784 5784 5784 5784 5784 5784 5783 5782 5782 5780 5779 5778 5778 5778 5778 5779 5780 5780 5782 5782 5784 5784 5786 5787 5788 5790 5792 5793 5796 5798 5800 5802 5804 5808 5812 5814 5816 5816 5819 5822 5824 5827 5830 5832 5834 5836 5838 5840 5843 5845 5848 5850 5852
5799 5798 5796 5794 5792 5791 5790 5788 5787 5786 5784 5784 5784 5782 5781 5780 5780 5780 5779 5778 5778 5778 5777 5776 5777 5778 5778 5778 5780 5780 5781 5782 5782 5782 5782 5783 5783 5783 5783 5782 5782 5782 5782 5780 5780 5778 5778 5778 5778 5778 5779 5780 5781 5782 5783 5784 5785 5786 5787 5789 5790 5792 5794 5797 5800 5802 5804 5806 5808 5811 5812 5814 5818 5820 5823 5826 5828 5830 5832 5834 5836 5838 5840 5842 5844 5847 5850
5795 5794 5792 5790 5789 5788 5786 5785 5784 5782 5782 5781 5780 5780 5778 5777 5776 5776 5776 5776 5776 5775 5774 5774 5774 5775 5776 5776 5778 5778 5780 5780 5780 5781 5781 5782 5782 5782 5782 5782 5782 5782 5782 5780 5780 5778 5778 5778 5778 5778 5779 5780 5780 5782 5782 5783 5784 5785 5786 5788 5790 5791 5793 5796 5798 5801 5802 5804 5806 5808 5810 5813 5816 5818 5820 5823 5826 5828 5830 5832 5834 5836 5838 5840 5842 5844 5846
5790 5790 5788 5786 5785 5784 5782 5782 5780 5779 5778 5778 5777 5776 5776 5774 5774 5774 5774 5774 5773 5773 5772 5772 5772 5772 5773 5774 5776 5777 5778 5778 5779 5780 5780 5780 5781 5781 5782 5782 5782 5782 5781 5780 5780 5779 5778 5778 5778 5778 5779 5780 5780 5781 5782 5783 5784 5784 5785 5786 5788 5790 5792 5794 5797 5800 5801 5802 5804 5806 5808 5810 5812 5815 5818 5820 5822 5825 5827 5830 5832 5833 5835 5836 5838 5841 5843
5786 5785 5784 5782 5781 5780 5778 5778 5777 5776 5775 5774 5774 5774 5773 5772 5771 5770 5770 5770 5770 5770 5770 5770 5770 5770 5770 5772 5774 5775 5776 5777 5778 5778 5778 5779 5780 5780 5780 5780 5781 5781 5780 5780 5780 5780 5779 5778 5778 5778 5779 5780 5780 5781 5782 5782 5784 5784 5784 5786 5787 5789 5791 5792 5795 5798 5800 5802 5803 5804 5806 5808 5810 5813 5815 5818 5820 5822 5824 5826 5828 5830 5832 5834 5836 5838 5840
5780 5780 5779 5778 5777 5776 5774 5774 5773 5772 5772 5771 5770 5770 5770 5769 5768 5768 5768 5768 5768 5768 5767 5767 5768 5768 5768 5770 5771 5773 5774 5775 5776 5776 5777 5778 5778 5779 5780 5780 5780 5780 5780 5780 5780 5780 5780 5779 5779 5779 5779 5780 5780 5780 5781 5782 5783 5784 5784 5786 5786 5788 5790 5792 5794 5796 5798 5800 5801 5802 5804 5806 5808 5810 5812 5814 5817 5819 5822 5822 5824 5826 5830 5832 5833 5835 5836
5774 5774 5774 5773 5772 5771 5770 5769 5768 5768 5768 5767 5767 5767 5766 5766 5766 5765 5764 5764 5764 5764 5764 5764 5764 5765 5766 5766 5769 5770 5772 5773 5774 5774 5776 5776 5776 5778 5778 5778 5778 5779 5780 5780 5780 5780 5780 5780 5780 5779 5779 5780 5780 5780 5781 5782 5782 5784 5784 5785 5786 5788 5788 5790 5792 5794 5796 5798 5799 5800 5802 5804 5806 5808 5810 5812 5814 5816 5817 5818 5820 5824 5826 5828 5830 5832 5834
5768 5768 5768 5768 5767 5766 5765 5764 5764 5764 5764 5764 5763 5763 5763 5763 5762 5762 5762 5762 5762 5762 5762 5762 5762 5762 5762 5764 5766 5768 5770 5771 5772 5773 5774 5774 5775 5776 5776 5777 5778 5778 5778 5779 5780 5780 5780 5780 5780 5780 5780 5780 5780 5780 5781 5782 5782 5783 5784 5785 5786 5787 5788 5790 5791 5792 5794 5796 5797 5798 5800 5801 5803 5805 5807 5809 5810 5812 5814 5816 5818 5820 5822 5824 5826 5828 5830
5762 5762 5762 5762 5762 5761 5760 5760 5760 5760 5759 5759 5759 5760 5760 5760 5759 5759 5758 5758 5758 5758 5759 5759 5759 5760 5760 5762 5764 5766 5768 5769 5770 5770 5772 5772 5773 5774 5774 5775 5776 5776 5778 5778 5779 5780 5780 5780 5780 5780 5780 5780 5780 5781 5781 5782 5782 5783 5784 5784 5786 5786 5788 5788 5790 5791 5792 5794 5795 5796 5798 5800 5800 5802 5804 5806 5807 5809 5812 5814 5815 5816 5818 5820 5822 5823 5825
5756 5756 5756 5756 5756 5756 5755 5754 5755 5755 5755 5755 5755 5755 5756 5756 5756 5756 5756 5756 5756 5756 5756 5756 5756 5756 5758 5758 5760 5763 5765 5766 5768 5768 5770 5770 5772 5772 5773 5774 5774 5775 5776 5777 5778 5778 5779 5780 5780 5780 5780 5781 5781 5782 5782 5782 5782 5783 5784 5784 5785 5786 5787 5788 5789 5790 5791 5792 5794 5795 5796 5798 5799 5800 5802 5803 5804 5806 5808 5810 5812 5813 5814 5816 5818 5819 5821
5750 5750 5750 5750 5750 5750 5750 5750 5750 5750 5750 5750 5751 5751 5752 5752 5752 5752 5752 5752 5752 5752 5753 5754 5754 5754 5755 5756 5758 5760 5762 5764 5766 5766 5768 5768 5770 5770 5772 5772 5773 5774 5774 5776 5776 5778 5778 5779 5779 5780 5780 5780 5781 5782 5782 5782 5782 5783 5784 5784 5785 5786 5787 5788 5788 5790 5790 5791 5792 5794 5795 5796 5797 5798 5800 5800 5802 5804 5805 5806 5808 5809 5810 5812 5814 5815 5816
5743 5743 5743 5743 5744 5744 5744 5744 5744 5745 5746 5746 5746 5747 5748 5748 5748 5748 5748 5749 5749 5750 5750 5750 5750 5751 5752 5754 5756 5758 5760 5762 5763 5764 5766 5766 5768 5769 5770 5771 5772 5772 5773 5774 5775 5776 5777 5778 5778 5779 5780 5780 5781 5782 5782 5782 5783 5784 5784 5784 5786 5786 5787 5788 5788 5789 5790 5790 5792 5792 5794 5794 5796 5796 5798 5799 5800 5801 5802 5803 5804 5806 5806 5808 5810 5810 5812
5737 5736 5736 5736 5738 5738 5738 5738 5740 5740 5741 5742 5742 5743 5744 5744 5745 5745 5745 5746 5746 5746 5746 5747 5748 5748 5749 5750 5752 5755 5758 5760 5761 5762 5764 5764 5766 5767 5768 5770 5770 5771 5772 5772 5774 5774 5776 5776 5777 5778 5778 5780 5780 5781 5782 5782 5783 5784 5784 5784 5786 5786 5786 5788 5788 5788 5789 5790 5790 5792 5792 5793 5794 5795 5796 5797 5798 5798 5800 5800 5802 5802 5804 5804 5805 5806 5808
5732 5730 5730 5730 5730 5732 5732 5734 5734 5735 5736 5738 5738 5739 5740 5740 5741 5742 5742 5742 5742 5743 5744 5744 5745 5746 5746 5748 5750 5752 5755 5757 5758 5760 5761 5762 5764 5765 5766 5768 5768 5770 5770 5771 5772 5772 5774 5774 5776 5776 5778 5778 5779 5780 5780 5781 5782 5782 5783 5784 5784 5786 5786 5787 5788 5788 5788 5789 5790 5790 5791 5792 5792 5793 5794 5794 5796 5796 5797 5798 5798 5800 5800 5801 5802 5802 5804
5726 5726 5725 5725 5726 5726 5727 5728 5730 5730 5732 5733 5734 5736 5736 5737 5738 5738 5738 5739 5740 5740 5740 5742 5742 5742 5743 5745 5747 5750 5752 5754 5756 5758 5759 5760 5762 5763 5764 5766 5767 5768 5768 5770 5770 5771 5772 5772 5774 5774 5776 5776 5777 5778 5778 5780 5780 5781 5782 5782 5784 5784 5785 5786 5786 5787 5788 5788 5788 5789 5790 5790 5790 5792 5792 5792 5793 5794 5794 5795 5796 5796 5797 5798 5798 5799 5800
5722 5721 5720 5720 5721 5722 5722 5724 5724 5726 5728 5729 5730 5732 5732 5734 5734 5734 5735 5736 5736 5736 5737 5738 5739 5740 5740 5742 5744 5746 5749 5752 5754 5756 5757 5758 5760 5761 5762 5764 5765 5766 5767 5768 5768 5769 5770 5770 5772 5772 5774 5774 5775 5776 5776 5778 5778 5779 5780 5781 5782 5782 5783 5784 5784 5785 5786 5786 5787 5788 5788 5788 5789 5790 5790 5790 5791 5791 5792 5792 5792 5792 5793 5794 5794 5795 5796
5716 5716 5716 5716 5716 5716 5718 5719 5720 5722 5723 5724 5726 5728 5728 5730 5730 5731 5732 5732 5733 5734 5734 5735 5736 5736 5738 5740 5742 5744 5746 5750 5752 5754 5754 5756 5758 5759 5760 5762 5763 5764 5764 5766 5766 5767 5768 5768 5770 5770 5771 5772 5772 5774 5774 5776 5776 5776 5778 5779 5780 5780 5781 5782 5782 5782 5783 5784 5785 5785 5786 5786 5786 5787 5788 5788 5788 5788 5788 5788 5788 5789 5789 5790 5790 5790 5791
5711 5711 5711 5711 5711 5712 5712 5714 5716 5717 5718 5720 5722 5724 5725 5726 5727 5728 5728 5729 5730 5730 5731 5732 5732 5734 5736 5738 5740 5742 5744 5747 5750 5751 5752 5754 5756 5756 5758 5760 5760 5762 5762 5764 5764 5765 5766 5766 5767 5768 5769 5770 5770 5772 5772 5773 5774 5774 5775 5776 5778 5778 5778 5779 5779 5780 5780 5781 5782 5782 5782 5783 5784 5784 5784 5784 5784 5784 5784 5784 5784 5784 5784 5785 5786 5786 5786
5706 5706 5706 5706 5707 5707 5708 5710 5712 5713 5714 5716 5718 5720 5722 5723 5724 5725 5726 5726 5727 5728 5728 5729 5730 5732 5734 5736 5737 5740 5742 5745 5747 5748 5750 5752 5753 5754 5756 5757 5758 5760 5760 5761 5762 5762 5764 5764 5765 5766 5766 5768 5768 5769 5770 5770 5770 5771 5772 5774 5775 5775 5776 5776 5776 5776 5777 5778 5778 5779 5779 5780 5780 5780 5781 5781 5781 5780 5780 5780 5780 5780 5780 5780 5780 5780 5781
5700 5701 5702 5702 5702 5704 5704 5706 5707 5709 5711 5713 5715 5716 5718 5720 5720 5722 5722 5724 5724 5725 5726 5726 5728 5730 5732 5733 5735 5738 5740 5743 5745 5746 5748 5750 5751 5752 5754 5755 5756 5757 5758 5759 5760 5760 5762 5762 5763 5764 5764 5765 5766 5766 5767 5768 5768 5768 5770 5772 5772 5772 5772 5772 5772 5773 5774 5774 5774 5775 5776 5776 5776 5776 5776 5776 5776 5776 5776 5776 5776 5776 5775 5775 5775 5775 5776
5695 5696 5696 5698 5698 5700 5700 5702 5704 5706 5708 5710 5712 5714 5714 5716 5718 5718 5720 5721 5722 5722 5724 5725 5726 5728 5730 5732 5734 5736 5738 5741 5742 5744 5746 5747 5748 5750 5752 5752 5754 5755 5756 5756 5758 5758 5759 5760 5760 5762 5762 5763 5764 5764 5764 5764 5766 5766 5768 5768 5769 5769 5768 5768 5769 5770 5770 5770 5770 5771 5771 5772 5772 5772 5772 5772 5772 5771 5771 5771 5770 5770 5770 5770 5770 5770 5770
5690 5690 5692 5693 5694 5696 5697 5698 5700 5702 5704 5706 5708 5710 5711 5712 5714 5716 5717 5718 5720 5720 5722 5723 5724 5726 5728 5730 5732 5734 5736 5738 5740 5742 5743 5744 5746 5748 5749 5750 5752 5752 5753 5754 5755 5756 5756 5758 5758 5759 5760 5760 5761 5762 5762 5762 5763 5764 5765 5766 5766 5765 5765 5766 5766 5766 5767 5767 5767 5766 5767 5767 5767 5766 5766 5766 5766 5766 5766 5766 5766 5765 5765 5764 5764 5764 5764
5686 5686 5688 5689 5690 5692 5694 5696 5698 5700 5702 5704 5705 5706 5708 5710 5712 5713 5714 5716 5717 5718 5720 5722 5723 5725 5727 5728 5730 5732 5734 5736 5738 5740 5740 5742 5744 5745 5746 5748 5748 5750 5750 5752 5752 5753 5754 5755 5756 5756 5757 5758 5758 5758 5759 5760 5760 5762 5762 5762 5762 5762 5762 5762 5762 5763 5763 5763 5763 5762 5762 5762 5762 5762 5760 5760 5760 5760 5760 5760 5760 5760 5759 5759 5758 5758 5758
5682 5683 5684 5686 5688 5690 5691 5693 5695 5697 5698 5700 5702 5704 5705 5706 5708 5710 5712 5713 5714 5716 5718 5720 5722 5724 5725 5726 5728 5730 5732 5734 5736 5737 5738 5740 5742 5743 5744 5745 5746 5747 5748 5749 5750 5750 5752 5752 5753 5754 5754 5755 5756 5756 5756 5758 5758 5759 5759 5758 5758 5758 5758 5758 5758 5758 5758 5758 5758 5758 5758 5757 5756 5756 5756 5755 5754 5754 5754 5754 5753 5753 5752 5752 5752 5752 5752
5680 5680 5682 5683 5685 5687 5689 5690 5692 5694 5696 5698 5699 5700 5702 5704 5706 5708 5709 5710 5712 5714 5716 5718 5720 5722 5724 5725 5726 5728 5730 5732 5734 5735 5736 5738 5740 5740 5742 5742 5744 5744 5746 5746 5747 5748 5749 5750 5750 5752 5752 5752 5752 5754 5754 5755 5755 5756 5755 5755 5754 5754 5754 5754 5754 5754 5754 5754 5754 5753 5752 5752 5751 5750 5750 5750 5748 5748 5748 5746 5746 5746 5746 5745 5745 5744 5744
5677 5678 5680 5682 5684 5685 5686 5688 5690 5692 5694 5695 5696 5698 5700 5702 5704 5705 5707 5708 5710 5712 5714 5716 5718 5720 5722 5723 5724 5726 5728 5730 5731 5732 5734 5736 5737 5738 5739 5740 5741 5742 5743 5744 5744 5746 5746 5747 5748 5748 5749 5750 5750 5752 5752 5752 5752 5752 5752 5752 5751 5751 5751 5751 5750 5750 5750 5750 5749 5748 5748 5746 5746 5745 5744 5744 5742 5742 5741 5740 5740 5739 5738 5738 5737 5737 5736
5675 5676 5679 5681 5682 5684 5685 5686 5688 5690 5692 5693 5694 5696 5698 5700 5702 5703 5704 5706 5708 5710 5712 5714 5716 5718 5720 5720 5722 5724 5726 5728 5729 5730 5732 5733 5734 5736 5736 5738 5738 5740 5740 5741 5742 5743 5744 5745 5746 5746 5746 5746 5748 5749 5750 5749 5748 5748 5748 5748 5748 5748 5747 5747 5746 5746 5746 5745 5744 5743 5742 5742 5740 5740 5738 5738 5736 5736 5734 5734 5732 5732 5731 5730 5730 5729 5728
5674 5676 5678 5680 5681 5682 5684 5685 5686 5688 5690 5691 5692 5694 5696 5698 5699 5701 5702 5704 5706 5708 5710 5712 5714 5716 5718 5719 5720 5722 5724 5726 5727 5728 5729 5730 5732 5733 5734 5735 5736 5737 5738 5739 5740 5740 5742 5742 5743 5743 5743 5744 5745 5746 5746 5746 5745 5745 5744 5744 5744 5744 5743 5742 5742 5742 5741 5740 5739 5738 5737 5736 5735 5734 5733 5732 5730 5729 5728 5726 5725 5724 5723 5722 5721 5720 5720
5674 5675 5677 5678 5680 5680 5682 5684 5685 5686 5688 5689 5690 5692 5694 5696 5698 5699 5700 5702 5704 5706 5708 5710 5712 5714 5716 5718 5719 5720 5722 5723 5724 5726 5727 5728 5730 5731 5732 5732 5734 5734 5736 5736 5737 5738 5739 5740 5740 5740 5740 5740 5742 5742 5742 5742 5742 5741 5741 5740 5740 5740 5739 5738 5738 5737 5736 5735 5734 5733 5732 5730 5730 5728 5726 5725 5724 5722 5720 5718 5717 5716 5714 5713 5712 5711 5710
5672 5674 5675 5678 5679 5680 5681 5682 5683 5684 5686 5688 5689 5690 5692 5694 5696 5697 5699 5701 5703 5705 5707 5709 5710 5712 5714 5716 5717 5718 5720 5721 5722 5724 5725 5726 5728 5728 5730 5730 5732 5732 5733 5734 5735 5736 5736 5737 5738 5738 5738 5738 5739 5740 5739 5738 5738 5738 5737 5737 5736 5736 5735 5734 5733 5732 5731 5730 5729 5728 5726 5724 5723 5722 5720 5718 5716 5714 5712 5710 5708 5707 5706 5704 5703 5702 5701
5671 5672 5674 5676 5678 5679 5680 5680 5682 5682 5684 5686 5688 5689 5690 5692 5694 5696 5698 5700 5702 5704 5706 5708 5709 5711 5712 5714 5716 5716 5718 5720 5720 5722 5723 5724 5726 5726 5727 5728 5729 5730 5730 5732 5732 5733 5734 5734 5734 5734 5735 5736 5736 5736 5735 5735 5734 5734 5734 5733 5732 5732 5730 5730 5728 5727 5726 5724 5723 5722 5720 5718 5716 5714 5712 5710 5708 5706 5704 5702 5700 5698 5696 5695 5694 5692 5692
5670 5671 5672 5674 5676 5678 5678 5679 5680 5681 5682 5684 5686 5687 5688 5690 5692 5694 5696 5698 5700 5702 5704 5706 5708 5710 5711 5712 5714 5715 5716 5718 5718 5720 5721 5722 5723 5724 5725 5726 5726 5728 5728 5729 5730 5730 5731 5732 5732 5732 5732 5732 5732 5732 5732 5732 5731 5730 5730 5729 5728 5727 5726 5725 5724 5722 5720 5719 5717 5715 5713 5710 5708 5706 5704 5702 5699 5697 5695 5693 5691 5690 5688 5686 5684 5684 5682
5670 5670 5672 5672 5674 5676 5676 5678 5678 5680 5681 5682 5684 5686 5687 5689 5690 5692 5694 5696 5698 5701 5703 5704 5706 5708 5709 5710 5712 5713 5714 5716 5716 5718 5720 5720 5721 5722 5722 5724 5724 5726 5726 5727 5728 5728 5728 5730 5730 5730 5729 5729 5729 5728 5728 5728 5728 5726 5726 5725 5724 5722 5722 5720 5718 5717 5715 5713 5710 5708 5706 5704 5701 5698 5696 5694 5692 5690 5687 5685 5683 5681 5679 5678 5676 5674 5672
5668 5670 5670 5672 5673 5674 5675 5676 5678 5678 5680 5681 5682 5684 5686 5688 5690 5691 5693 5695 5697 5700 5702 5703 5704 5706 5708 5708 5710 5711 5712 5714 5715 5716 5717 5718 5718 5720 5720 5722 5722 5723 5724 5724 5725 5726 5726 5727 5726 5726 5726 5726 5726 5725 5724 5724 5724 5722 5722 5720 5720 5718 5716 5715 5714 5712 5710 5708 5705 5702 5700 5697 5694 5692 5690 5688 5685 5683 5680 5678 5676 5674 5671 5669 5668 5666 5664
5667 5668 5670 5670 5672 5672 5674 5674 5676 5677 5678 5680 5681 5682 5684 5686 5688 5690 5692 5694 5696 5698 5700 5702 5703 5704 5706 5707 5708 5710 5710 5712 5713 5714 5715 5716 5716 5718 5718 5720 5720 5720 5722 5722 5723 5724 5724 5724 5723 5723 5723 5722 5722 5722 5721 5720 5720 5718 5718 5716 5715 5714 5712 5710 5708 5706 5704 5702 5699 5696 5694 5692 5689 5686 5684 5681 5678 5676 5673 5670 5668 5666 5663 5661 5659 5657 5656
5666 5667 5668 5669 5670 5671 5672 5673 5674 5676 5677 5678 5680 5681 5682 5684 5686 5688 5690 5692 5694 5696 5698 5700 5701 5702 5704 5706 5706 5708 5708 5710 5711 5712 5713 5714 5714 5716 5716 5717 5718 5718 5719 5720 5720 5721 5721 5720 5720 5720 5720 5720 5719 5718 5718 5717 5716 5715 5714 5712 5711 5710 5708 5706 5704 5701 5698 5696 5693 5690 5688 5686 5683 5680 5677 5674 5671 5668 5666 5662 5660 5658 5655 5653 5651 5649 5648
5664 5666 5667 5668 5668 5670 5670 5672 5672 5674 5676 5676 5678 5680 5681 5682 5684 5686 5688 5690 5692 5695 5696 5698 5700 5701 5702 5704 5705 5706 5707 5708 5709 5710 5710 5712 5712 5714 5714 5715 5716 5716 5717 5718 5718 5718 5718 5717 5717 5717 5716 5716 5716 5715 5714 5713 5712 5711 5710 5708 5706 5705 5703 5700 5698 5696 5693 5690 5688 5685 5682 5680 5676 5674 5670 5668 5664 5661 5658 5656 5652 5650 5648 5646 5644 5642 5640
5664 5665 5666 5666 5668 5668 5669 5670 5672 5672 5674 5675 5676 5678 5679 5681 5683 5685 5687 5689 5691 5693 5695 5696 5698 5700 5701 5702 5703 5704 5705 5706 5707 5708 5708 5710 5710 5712 5712 5712 5713 5714 5714 5714 5714 5714 5714 5714 5714 5714 5714 5713 5712 5711 5710 5709 5708 5707 5706 5704 5702 5700 5698 5696 5694 5690 5688 5685 5682 5680 5676 5674 5670 5668 5665 5662 5658 5655 5652 5648 5646 5643 5640 5638 5637 5636 5634
5662 5664 5664 5665 5666 5667 5668 5668 5670 5671 5672 5674 5674 5676 5678 5680 5682 5684 5686 5688 5690 5692 5694 5696 5697 5698 5699 5700 5702 5702 5704 5704 5706 5706 5707 5708 5708 5709 5710 5710 5710 5711 5712 5712 5712 5712 5712 5712 5711 5711 5710 5710 5708 5708 5706 5706 5704 5703 5702 5700 5698 5696 5694 5691 5688 5686 5682 5680 5676 5674 5671 5668 5666 5662 5660 5656 5652 5649 5646 5642 5640 5636 5634 5633 5632 5630 5629
5662 5662 5662 5664 5664 5666 5666 5668 5668 5670 5671 5672 5673 5674 5676 5678 5680 5682 5684 5686 5688 5690 5692 5694 5696 5696 5698 5699 5700 5701 5702 5703 5704 5704 5705 5706 5706 5707 5707 5708 5708 5708 5708 5708 5709 5708 5708 5708 5708 5708 5707 5706 5706 5704 5703 5702 5700 5700 5698 5696 5694 5692 5689 5686 5683 5680 5677 5674 5672 5669 5666 5664 5660 5657 5654 5650 5646 5643 5640 5636 5634 5631 5630 5628 5626 5626 5624
5660 5660 5662 5662 5663 5664 5665 5666 5667 5668 5670 5670 5672 5673 5675 5677 5679 5681 5683 5685 5687 5689 5690 5692 5694 5696 5696 5698 5699 5700 5700 5702 5702 5702 5702 5704 5704 5704 5704 5704 5705 5706 5706 5706 5706 5706 5706 5706 5705 5704 5704 5703 5702 5701 5700 5698 5697 5696 5694 5692 5690 5687 5684 5682 5678 5675 5672 5670 5668 5665 5662 5658 5655 5652 5648 5644 5641 5638 5635 5632 5629 5627 5625 5624 5622 5621 5620